Flag for U.S.A. Weather past 2 weeks in Idaho Falls, Idaho, U.S.A.

Now
57 °F

Clear.


Feels Like: 55 °F
Forecast: 57 / 76 °F
Wind: 8 mph from Southwest

Location: Fanning Field

Current Time: Aug 30, 2015 at 6:41:40 AM

Latest Report: Aug 30, 2015 at 5:53 AM


Visibility: 10 mi

Pressure: 29.85 "Hg (25.18 "Hg at 1429m altitude)

Humidity: 90%

Dew point: 54 °F

Location of Idaho FallsLocation

Historic Weather in Idaho Falls — Graph

°F

Idaho Falls temperature yesterday

Maximum temperature yesterday: 93 °F (at 3:53 PM)
Minimum temperature yesterday: 58 °F (at 2:53 AM)
Average temperature yesterday: 72 °F

Past Weeks' High & Low Weather Summary

 TemperatureHumidityPressure
High95 °F (Aug 25, 3:53 PM)93% (Aug 27, 1:53 AM)30.18 "Hg (Aug 27, 1:53 AM)
Low38 °F (Aug 23, 6:53 AM)10% (Aug 23, 2:53 PM)29.63 "Hg (Aug 21, 6:53 PM)
Average67 °F45%29.97 "Hg
* Reported Aug 15 4:53 AM — Aug 30 4:53 AM, Idaho Falls, Weather by CustomWeather, © 2015

Note: Actual official high and low records may vary slightly from our data, if they occured in-between our weather recording intervals... More about our weather records

Advertising

Idaho Falls weather history for previous 24 hours

 ConditionsComfort  
Time TempWeatherWind HumidityBarometerVisibility
4:53 AM
Sun, Aug 30
58 °FClear.12 mph90%29.81 "Hg10 mi
3:53 AM57 °FClear.7 mph87%29.79 "Hg10 mi
2:53 AM59 °FClear.7 mph87%29.76 "Hg10 mi
1:53 AM61 °FClear.No wind83%29.74 "Hg10 mi
12:53 AM61 °FThundershowers. Passing clouds.9 mph83%29.73 "Hg10 mi
11:53 PM
Sat, Aug 29
63 °FClear.12 mph78%29.80 "Hg10 mi
10:53 PM64 °FStrong thunderstorms. Mostly cloudy.3 mph75%29.87 "Hg3 mi
9:53 PM66 °FScattered clouds.7 mph63%29.79 "Hg10 mi
8:53 PM72 °FLight rain. Broken clouds.16 mph46%29.87 "Hg10 mi
7:53 PM70 °FLight rain. Partly sunny.13 mph51%29.83 "Hg10 mi
6:53 PM80 °FThundershowers. Partly sunny.14 mph29%29.80 "Hg10 mi
5:53 PM85 °FPartly sunny.10 mph28%29.78 "Hg10 mi
4:53 PM91 °FPartly sunny.23 mph17%29.78 "Hg10 mi
3:53 PM93 °FPartly sunny.25 mph16%29.80 "Hg10 mi
2:53 PM92 °FScattered clouds.20 mph18%29.83 "Hg10 mi
1:53 PM91 °FPartly sunny.15 mph18%29.85 "Hg10 mi
12:53 PM86 °FPartly sunny.9 mph24%29.88 "Hg10 mi
11:53 AM82 °FMore clouds than sun.12 mph28%29.92 "Hg10 mi
10:53 AM81 °FThundershowers. Partly sunny.12 mph28%29.91 "Hg10 mi
9:53 AM72 °FBroken clouds.7 mph46%29.92 "Hg10 mi
8:53 AM66 °FLight rain. Broken clouds.5 mph59%29.94 "Hg10 mi
7:53 AM62 °FPartly cloudy.No wind65%29.93 "Hg10 mi
6:53 AM61 °FPassing clouds.5 mph65%29.93 "Hg10 mi
Weather by CustomWeather, © 2015

See weather overviewHow to use our weather pages